#timestamp,LO_Frequency,Hit,StdDev 
1455541215.6,286046988.1,N
1455541235.4,286046989.2,N
1455541255.3,286046986.6,N
1455541275.1,286046983.8,N
1455541276.0,286046983.8,N
1455541295.8,286046984.6,N
1455541315.7,286046985.3,N
1455541335.5,286046985.8,N
1455541355.3,286046986.0,N
1455541375.2,286046985.7,N
1455541395.9,286046989.6,N
1455541415.7,286046989.7,N
1455541435.5,286046991.3,N
1455541455.4,286046988.9,N
1455541475.2,286046987.5,N
1455541495.0,286046987.5,N
1455541495.9,286046987.5,N
1455541515.8,286046987.2,N
1455541535.6,286046991.2,N
1455541555.4,286046992.2,N
1455541575.3,286046996.3,N
1455541595.1,286046995.1,N
1455541596.0,286046995.1,N
1455541615.8,286046999.2,N
1455541635.7,286046997.3,N
1455541655.5,286046995.8,N
1455541675.3,286046993.9,N
1455541695.2,286046996.4,N
1455541715.9,286046994.7,N
1455541735.7,286046991.1,N
1455541755.6,286046991.5,N
1455541775.4,286046991.0,N
1455541795.2,286046994.6,N
1455541815.0,286046995.4,N
1455541816.0,286046995.4,N
1455541835.8,286046995.8,N
1455541855.6,286046995.0,N
1455541875.4,286046996.4,N
1455541895.3,286046997.9,N
1455541915.1,286046998.0,N
1455541935.8,286046993.7,N
1455541955.7,286046994.6,N
1455541975.5,286046991.7,N
1455541995.3,286046993.5,N
1455542015.2,286046997.0,N
1455542035.9,286046994.9,N
1455542055.7,286046995.1,N
1455542075.6,286046997.9,N
1455542095.4,286046996.6,N
1455542115.2,286046996.9,N
1455542135.1,286047000.5,N
1455542136.0,286047000.5,N
1455542155.8,286047002.5,N
1455542175.6,286046995.4,N
1455542195.4,286046995.1,N
1455542215.3,286046999.7,N
1455542235.1,286047001.5,N
1455542255.8,286046999.9,N
1455542275.7,286047003.9,N
1455542295.5,286047001.3,N
1455542315.3,286047006.0,N
1455542335.2,286047006.6,N
1455542355.9,286047009.2,N
1455542375.7,286047010.1,N
1455542395.6,286047009.6,N
1455542415.4,286047007.5,N
1455542435.2,286047003.0,N
1455542455.1,286047005.3,N
1455542456.0,286047005.3,N
1455542475.8,286047005.0,N
1455542495.6,286047004.2,N
1455542515.5,286047003.7,N
1455542535.3,286047000.8,N
1455542555.1,286047002.6,N
1455542575.8,286047005.3,N
1455542595.7,286047005.4,N
1455542615.5,286047007.4,N
1455542635.3,286047006.8,N
1455542655.2,286047006.2,N
1455542675.0,286047005.6,N
1455542675.9,286047005.6,N
1455542695.7,286047003.4,N
1455542715.6,286047003.3,N
1455542735.4,286047003.6,N
1455542755.2,286047002.0,N
1455542775.1,286047002.3,N
1455542776.0,286047002.3,N
1455542795.8,286047005.1,N
1455542815.6,286047006.9,N
1455542835.5,286047008.2,Y
1455542855.3,286047002.8,P
1455542875.1,286047000.5,N
1455542895.9,286047002.6,N
1455542915.7,286047002.9,N
1455542935.5,286046999.8,N
1455542955.4,286047002.2,N
1455542975.2,286047002.1,N
1455542995.0,286047000.9,N
1455542995.9,286047000.9,N
1455543015.8,286046996.6,N
1455543035.6,286046996.7,N
1455543055.4,286046995.4,N
1455543075.2,286046995.5,N
1455543095.1,286046997.5,N
1455543096.0,286046997.5,N
1455543115.8,286047000.1,N
1455543135.6,286047003.5,N
1455543155.5,286047004.0,N
1455543175.3,286047003.5,N
1455543195.1,286046997.7,N
1455543215.9,286046995.2,N
1455543235.7,286046996.8,N
1455543255.5,286046999.0,N
1455543275.4,286047001.0,N
1455543295.2,286046995.3,N
1455543315.0,286046994.4,N
1455543315.9,286046994.4,N
1455543335.8,286046993.4,N
1455543355.6,286046994.3,N
1455543375.4,286046990.2,N
1455543395.3,286046993.0,N
1455543415.1,286046991.0,N
1455543416.0,286046991.0,N
1455543435.8,286046992.5,N
1455543455.7,286046994.8,N
1455543475.5,286046998.0,N
1455543495.3,286046997.6,N
1455543515.2,286046997.8,N
1455543535.9,286046997.8,N
1455543555.7,286046999.5,N
1455543575.5,286046997.0,N
1455543595.4,286046999.4,N
1455543615.2,286046997.3,N
1455543635.0,286046999.3,N
1455543635.9,286046999.3,N
1455543655.8,286047001.5,N
1455543675.6,286047007.5,N
1455543695.4,286047005.7,N
1455543715.3,286047006.6,N
1455543735.1,286047006.6,N
1455543755.8,286047006.6,N
1455543775.7,286047007.7,N
1455543795.5,286047006.5,N
1455543815.3,286047007.5,N
1455543835.2,286047005.0,N
1455543855.9,286047008.6,N
1455543875.7,286047011.7,N
1455543895.6,286047011.1,N
1455543915.4,286047013.6,N
1455543935.2,286047007.8,N
1455543955.0,286047008.0,N
1455543956.0,286047008.0,N
1455543975.8,286047010.8,N
1455543995.6,286047010.7,N
1455544015.4,286047011.6,N
1455544035.3,286047015.4,N
1455544055.1,286047014.5,N
1455544075.8,286047016.7,Y
1455544095.7,286047010.3,P
1455544115.5,286047012.1,P
1455544135.3,286047009.4,P
1455544155.2,286047011.5,Y
1455544175.0,286047007.0,P
1455544175.9,286047007.0,P
1455544195.7,286047001.4,N
1455544215.6,286047004.3,N
1455544235.4,286047005.9,N
1455544255.2,286047003.0,N
1455544275.1,286047005.4,N
1455544276.0,286047005.4,N
1455544295.8,286047005.7,N
1455544315.6,286047004.7,N
1455544335.5,286047001.9,N
1455544355.3,286047004.4,N
1455544375.1,286047003.2,N
1455544395.9,286047004.5,N
1455544415.7,286047005.8,N
1455544435.5,286047002.2,N
1455544455.4,286047003.0,N
1455544475.2,286047005.8,N
1455544495.0,286047002.7,N
1455544495.9,286047002.7,N
1455544515.8,286046996.8,N
1455544535.6,286046997.8,N
1455544555.4,286046997.4,N
1455544575.2,286046996.9,N
1455544595.1,286046998.9,N
1455544596.0,286046998.9,N
1455544615.8,286047000.1,N
1455544635.6,286047001.1,N
1455544655.5,286047000.4,N
1455544675.3,286047000.4,N
1455544695.1,286046996.8,N
1455544715.9,286046997.0,N
1455544735.7,286047002.7,N
1455544755.5,286047003.9,N
1455544775.4,286047000.7,N
1455544795.2,286047000.7,N
1455541215.7,286046995.3,N
1455541235.5,286046998.4,N
1455541255.3,286046999.6,N
1455541275.2,286046994.9,N
1455541295.0,286046994.0,N
1455541295.9,286046994.0,N
1455541315.7,286046988.7,N
1455541335.6,286046988.8,N
1455541355.4,286046985.8,N
1455541375.2,286046983.8,N
1455541395.1,286046984.8,N
1455541396.0,286046984.8,N
1455541415.8,286046986.4,N
1455541435.6,286046985.3,N
1455541455.5,286046984.8,N
1455541475.3,286046985.0,N
1455541495.1,286046982.4,N
1455541515.9,286046981.4,N
1455541535.7,286046980.0,N
1455541555.5,286046976.1,Y
1455541575.4,286046982.5,P
1455541595.2,286046983.3,P
1455541615.0,286046980.8,P
1455541615.9,286046980.8,Y
1455541635.8,286046996.2,P
1455541655.6,286046994.8,N
1455541675.4,286046992.5,N
1455541695.3,286046996.2,N
1455541715.1,286046995.2,N
1455541716.0,286046995.2,N
1455541735.8,286046993.9,N
1455541755.7,286046994.7,N
1455541775.5,286046992.6,N
1455541795.3,286046992.4,N
1455541815.1,286046991.8,N
1455541835.9,286046990.1,Y
1455541855.7,286046997.4,P
1455541875.6,286046996.9,N
1455541895.4,286046991.8,P
1455541915.2,286046996.0,N
1455541935.0,286046994.5,N
1455541935.9,286046994.5,N
1455541955.8,286046995.0,N
1455541975.6,286046995.5,N
1455541995.4,286046994.9,Y
1455542015.3,286047007.2,P
1455542035.1,286047010.3,N
1455542055.8,286047013.7,N
1455542075.7,286047016.7,N
1455542095.5,286047017.5,N
1455542115.3,286047021.9,N
1455542135.2,286047024.7,Y
1455542155.0,286047014.2,P
1455542155.9,286047014.2,P
1455542175.7,286047015.2,P
1455542195.6,286047013.0,Y
1455542215.4,286047002.6,P
1455542235.2,286047002.5,N
1455542255.1,286047000.1,N
1455542256.0,286047000.1,N
1455542275.8,286047000.0,N
1455542295.6,286047000.4,N
1455542315.5,286047000.0,N
1455542335.3,286047001.5,N
1455542355.1,286046999.8,N
1455542375.9,286047002.3,N
1455542395.7,286047003.0,N
1455542415.5,286047003.5,N
1455542435.4,286047000.0,N
1455542455.2,286047000.5,N
1455542475.0,286046998.2,N
1455542475.9,286046998.2,N
1455542495.8,286046996.9,N
1455542515.6,286047000.6,N
1455542535.4,286047001.3,N
1455542555.2,286047001.3,N
1455542575.1,286047001.3,N
1455542576.0,286047001.3,N
1455542595.8,286046999.7,N
1455542615.6,286047000.3,N
1455542635.5,286047004.3,N
1455542655.3,286047003.3,N
1455542675.1,286047000.0,N
1455542695.9,286047000.0,N
1455542715.7,286047001.1,N
1455542735.5,286046998.7,N
1455542755.4,286047001.2,N
1455542775.2,286046998.5,N
1455542795.0,286046995.6,N
1455542795.9,286046995.6,N
1455542815.8,286046994.9,N
1455542835.6,286046996.3,N
1455542855.4,286046997.7,N
1455542875.3,286046995.5,N
1455542895.1,286046996.4,N
1455542896.0,286046996.4,N
1455542915.8,286046998.3,N
1455542935.7,286046998.9,N
1455542955.5,286046998.5,N
1455542975.3,286046999.0,N
1455542995.2,286046999.4,N
1455543015.9,286046997.1,N
1455543035.7,286046999.0,N
1455543055.5,286047001.6,N
1455543075.4,286047001.4,N
1455543095.2,286047001.3,N
1455543115.1,286046999.5,N
1455543116.0,286046999.5,N
1455543135.8,286046996.6,N
1455543155.6,286046995.1,N
1455543175.5,286046994.5,N
1455543195.3,286046994.6,N
1455543215.1,286046995.9,N
1455543235.9,286046999.2,N
1455543255.7,286047001.1,N
1455543275.5,286046997.8,N
1455543295.3,286046996.9,N
1455543315.2,286046997.4,N
1455543335.0,286046995.2,N
1455543335.9,286046995.2,N
1455543355.8,286046992.2,Y
1455543375.6,286046997.0,P
1455543395.4,286046997.2,P
1455543415.2,286046995.2,P
1455543435.1,286046998.0,N
1455543436.0,286046998.0,N
1455543455.8,286046997.0,Y
1455543475.6,286046999.8,P
1455543495.5,286046996.6,N
1455543515.3,286047000.1,N
1455543535.1,286047002.3,N
1455543555.9,286047000.3,N
1455543575.7,286047001.1,N
1455543595.5,286046998.7,N
1455543615.4,286046999.5,N
1455543635.2,286047000.4,N
1455543655.0,286046998.5,N
1455543655.9,286046998.5,N
1455543675.8,286046998.0,N
1455543695.6,286046993.5,Y
1455543715.4,286046997.5,P
1455543735.3,286046995.4,P
1455543755.1,286046997.8,N
1455543756.0,286046997.8,N
1455543775.8,286046995.8,Y
1455543795.7,286046996.6,P
1455543815.5,286046996.7,P
1455543835.3,286046996.0,P
1455543855.2,286046991.7,Y
1455543875.0,286046994.2,P
1455543875.9,286046994.2,P
1455543895.7,286046992.6,P
1455543915.6,286046994.0,Y
1455543935.4,286046992.2,P
1455543955.2,286046989.4,P
1455543975.1,286046988.5,P
1455543976.0,286046988.5,Y
1455543995.8,286046998.2,P
1455544015.6,286047000.0,N
1455544035.5,286046997.4,N
1455544055.3,286046996.0,N
1455544075.1,286046994.6,N
1455544095.9,286046992.3,N
1455544115.7,286046991.4,N
1455544135.5,286046990.5,Y
1455544155.4,286046999.5,P
1455544175.2,286047002.2,N
1455544195.0,286047001.3,N
1455544195.9,286047001.3,N
1455544215.8,286047000.3,N
1455544235.6,286047002.2,N
1455544255.4,286047000.5,N
1455544275.3,286047002.1,N
1455544295.1,286047004.3,N
1455544296.0,286047004.3,N
1455544315.8,286047002.9,N
1455544335.7,286047006.7,N
1455544355.5,286047005.6,N
1455544375.3,286047005.6,N
1455544395.2,286047006.1,N
1455544415.9,286047010.2,Y
1455544435.7,286047007.1,P
1455544455.6,286047008.9,P
1455544475.4,286047008.9,P
1455544495.2,286047009.2,Y
1455544515.1,286047002.2,P
1455544516.0,286047002.2,N
1455544535.8,286047003.7,N
1455544555.6,286047004.8,N
1455544575.5,286047005.3,Y
1455544595.3,286047001.3,P
1455544615.1,286047003.1,N
1455544635.9,286047005.5,P
1455544655.7,286047009.2,Y
1455544675.5,286047001.5,P
1455544695.4,286047003.6,P
1455544715.2,286047009.2,P
1455544735.0,286047008.1,N
1455544735.9,286047008.1,N
1455544755.8,286047012.0,Y
1455544775.6,286047004.5,P
1455544795.4,286047004.2,P
